CW9098 Weather Reports


time (UTC)temp
C
wind
direction
speed
KPH
gust
KPH
rain 1hr
cm
rain 24hr
cm
rain mn
cm
humidity
%
barometer
mb
20260507164624 14 277 14.5 29.0 0.00 0.03 0.00 47 1010.4
20260507164119 14 325 14.5 20.9 0.00 0.03 0.00 45 1010.5
20260507163634 14 315 9.7 24.1 0.00 0.03 0.00 48 1010.5
20260507163140 14 243 16.1 24.1 0.00 0.03 0.00 50 1010.8
20260507162656 14 34 1.6 8.0 0.00 0.03 0.00 45 1010.6
20260507162122 14 313 3.2 12.9 0.00 0.03 0.00 44 1010.7
20260507161636 14 191 0.0 22.5 0.00 0.03 0.00 43 1010.8
20260507161143 14 258 16.1 22.5 0.00 0.03 0.00 45 1010.9
20260507160635 14 232 11.3 19.3 0.00 0.03 0.00 46 1010.8
20260507160122 13 248 11.3 22.5 0.00 0.03 0.00 44 1010.9
20260507155638 13 207 9.7 24.1 0.00 0.03 0.00 45 1010.9
20260507155132 13 274 12.9 24.1 0.00 0.03 0.00 51 1011.0
20260507154619 13 286 11.3 19.3 0.00 0.03 0.00 46 1011.1
20260507154127 13 322 6.4 22.5 0.00 0.03 0.00 49 1011.1
20260507153620 13 307 14.5 22.5 0.00 0.03 0.00 48 1011.1
20260507153134 13 324 8.0 17.7 0.00 0.03 0.00 48 1011.1
20260507152629 13 336 11.3 17.7 0.00 0.03 0.00 48 1011.2
20260507152122 13 16 11.3 17.7 0.00 0.03 0.00 51 1011.2
20260507151615 13 316 12.9 17.7 0.00 0.03 0.00 53 1011.3
20260507151130 13 267 6.4 16.1 0.00 0.03 0.00 49 1011.4
20260507150622 13 276 8.0 16.1 0.00 0.03 0.00 48 1011.6
20260507150135 12 10 6.4 14.5 0.00 0.03 0.00 50 1011.7
20260507145623 12 360 6.4 14.5 0.00 0.03 0.00 48 1011.7
20260507145136 12 297 8.0 12.9 0.00 0.03 0.00 51 1011.8
20260507144624 12 310 3.2 16.1 0.00 0.03 0.00 47 1011.9
20260507144159 12 211 8.0 20.9 0.00 0.03 0.00 52 1012.0
20260507143623 12 10 4.8 19.3 0.00 0.03 0.00 58 1012.0
20260507143137 12 360 4.8 19.3 0.00 0.03 0.00 50 1012.0
20260507142625 12 229 9.7 19.3 0.00 0.03 0.00 49 1012.0
20260507142118 12 282 3.2 19.3 0.00 0.03 0.00 51 1012.2
20260507141634 12 284 11.3 19.3 0.00 0.03 0.00 52 1012.2
20260507141123 12 320 11.3 17.7 0.00 0.03 0.00 51 1012.3
20260507140637 12 300 9.7 17.7 0.00 0.03 0.00 49 1012.4
20260507140123 12 261 3.2 12.9 0.00 0.03 0.00 55 1012.5
20260507135639 12 99 0.0 12.9 0.00 0.03 0.00 52 1012.6
20260507135146 11 139 6.4 12.9 0.00 0.03 0.00 55 1012.6
20260507134620 11 96 0.0 4.8 0.00 0.03 0.00 56 1012.6
20260507134138 11 103 1.6 6.4 0.00 0.03 0.00 56 1012.7
20260507133647 11 85 1.6 8.0 0.00 0.03 0.00 54 1012.6
20260507133141 11 73 3.2 6.4 0.00 0.03 0.00 54 1012.7
20260507132637 11 108 1.6 6.4 0.00 0.03 0.00 56 1012.7
20260507132123 11 144 0.0 3.2 0.00 0.03 0.00 58 1012.8
20260507131617 11 141 0.0 4.8 0.00 0.03 0.00 57 1012.9
20260507131133 11 141 1.6 4.8 0.00 0.03 0.00 58 1012.8
20260507130621 10 155 1.6 6.4 0.00 0.03 0.00 59 1012.9
20260507130156 10 216 0.0 6.4 0.00 0.03 0.00 59 1013.0
20260507125621 10 232 1.6 6.4 0.00 0.03 0.00 61 1012.9
20260507125135 10 242 0.0 6.4 0.00 0.03 0.00 61 1012.9
20260507124644 10 194 0.0 4.8 0.00 0.03 0.00 62 1012.9
20260507124138 10 200 1.6 8.0 0.00 0.03 0.00 62 1013.0
20260507123624 10 170 0.0 9.7 0.00 0.03 0.00 67 1013.1
20260507123118 10 195 0.0 3.2 0.00 0.03 0.00 64 1013.1
20260507122636 10 195 0.0 3.2 0.00 0.03 0.00 65 1013.1
20260507122123 10 197 0.0 3.2 0.00 0.03 0.00 70 1013.2
20260507121638 9 197 0.0 3.2 0.00 0.03 0.00 70 1013.1
20260507121126 8 213 0.0 0.0 0.00 0.03 0.00 69 1013.1
20260507120619 8 214 0.0 3.2 0.00 0.03 0.00 71 1013.1
20260507120134 8 214 0.0 3.2 0.00 0.03 0.00 73 1013.1
20260507115637 8 214 0.0 3.2 0.00 0.03 0.00 75 1013.1
20260507115130 7 214 0.0 3.2 0.00 0.03 0.00 76 1013.1
20260507114617 7 214 0.0 0.0 0.00 0.03 0.00 78 1013.0
20260507114131 7 216 0.0 0.0 0.00 0.03 0.00 79 1012.9
20260507113624 6 216 0.0 0.0 0.00 0.03 0.00 81 1013.0
20260507113137 6 216 0.0 0.0 0.00 0.03 0.00 83 1013.0
20260507112625 6 216 0.0 0.0 0.00 0.03 0.00 84 1012.9
20260507112118 5 216 0.0 0.0 0.00 0.03 0.00 85 1012.8
20260507111633 5 216 0.0 0.0 0.00 0.03 0.00 85 1012.7
20260507111143 4 216 0.0 0.0 0.00 0.03 0.00 85 1012.7
20260507110636 4 216 0.0 1.6 0.00 0.03 0.00 86 1012.7
20260507110122 4 216 0.0 1.6 0.00 0.03 0.00 86 1012.6
20260507105618 3 216 0.0 0.0 0.00 0.03 0.00 86 1012.5
20260507105132 3 216 0.0 3.2 0.00 0.03 0.00 86 1012.4
20260507104616 3 216 1.6 4.8 0.00 0.03 0.00 86 1012.5
20260507104132 2 216 0.0 4.8 0.00 0.03 0.00 86 1012.4
20260507103640 2 218 0.0 4.8 0.00 0.03 0.00 86 1012.3
20260507103134 2 218 1.6 4.8 0.00 0.03 0.00 85 1012.3
20260507102622 2 153 0.0 0.0 0.00 0.03 0.00 85 1012.2
20260507102134 3 153 0.0 0.0 0.00 0.03 0.00 85 1012.2
20260507101621 3 153 0.0 0.0 0.00 0.03 0.00 85 1012.2
20260507101137 3 153 0.0 0.0 0.00 0.03 0.00 84 1012.2
20260507100627 3 153 0.0 0.0 0.00 0.03 0.00 84 1012.2
20260507100142 3 151 0.0 0.0 0.00 0.03 0.00 84 1012.2
20260507095616 3 119 0.0 0.0 0.00 0.03 0.00 83 1012.2
20260507095130 3 118 0.0 0.0 0.00 0.03 0.00 82 1012.1
20260507094624 3 118 0.0 0.0 0.00 0.03 0.00 82 1012.1
20260507094119 4 113 0.0 0.0 0.00 0.03 0.00 81 1012.2
20260507093633 4 77 0.0 0.0 0.00 0.03 0.00 80 1012.2
20260507093121 4 76 0.0 0.0 0.00 0.03 0.00 78 1012.2
20260507092635 5 76 0.0 0.0 0.00 0.03 0.00 76 1012.1
20260507092121 5 76 0.0 0.0 0.00 0.03 0.00 75 1012.1
20260507091655 5 76 0.0 0.0 0.00 0.03 0.00 73 1012.1
20260507091122 6 76 0.0 0.0 0.00 0.03 0.00 72 1012.1
20260507090653 6 76 0.0 0.0 0.00 0.03 0.03 71 1012.0
20260507090140 6 76 0.0 6.4 0.00 0.03 0.03 70 1011.9
20260507085636 7 76 1.6 6.4 0.00 0.03 0.03 68 1011.9
20260507085122 7 77 3.2 8.0 0.00 0.03 0.03 66 1011.9
20260507084657 7 68 4.8 8.0 0.00 0.03 0.03 68 1011.9
20260507084123 7 60 1.6 4.8 0.00 0.03 0.03 66 1011.8
20260507083616 7 63 0.0 6.4 0.00 0.03 0.03 65 1011.8
20260507083127 7 65 1.6 6.4 0.00 0.03 0.03 65 1011.8
20260507082621 7 87 1.6 6.4 0.00 0.03 0.03 64 1011.8
20260507082115 7 78 1.6 12.9 0.00 0.03 0.03 65 1011.8
20260507081629 7 79 6.4 12.9 0.00 0.03 0.03 65 1011.8
20260507081124 7 70 3.2 11.3 0.00 0.03 0.03 66 1011.8
20260507080618 8 68 3.2 11.3 0.00 0.03 0.03 65 1011.8
20260507080131 8 93 3.2 14.5 0.00 0.03 0.03 65 1011.7
20260507075627 8 67 6.4 14.5 0.00 0.03 0.03 65 1011.7
20260507075142 8 62 6.4 9.7 0.00 0.03 0.03 65 1011.6
20260507074644 8 62 6.4 9.7 0.00 0.03 0.03 64 1011.6
20260507074137 8 86 1.6 9.7 0.00 0.03 0.03 64 1011.7
20260507073623 8 70 6.4 14.5 0.00 0.03 0.03 65 1011.7
20260507073137 8 60 6.4 14.5 0.00 0.03 0.03 64 1011.7
20260507072645 8 60 6.4 11.3 0.00 0.03 0.03 65 1011.7
20260507072157 8 46 6.4 11.3 0.00 0.03 0.03 65 1011.7
20260507071625 8 51 4.8 12.9 0.00 0.03 0.03 65 1011.9
20260507071121 8 58 4.8 9.7 0.00 0.03 0.03 65 1011.9
20260507070634 8 35 3.2 9.7 0.00 0.03 0.03 64 1011.9
20260507070122 8 73 3.2 6.4 0.00 0.03 0.03 65 1011.9
20260507065658 8 66 0.0 4.8 0.00 0.03 0.03 65 1012.0
20260507065123 8 66 0.0 8.0 0.00 0.03 0.03 64 1012.0
20260507064618 8 68 4.8 8.0 0.00 0.03 0.03 64 1012.0
20260507064130 8 58 0.0 8.0 0.00 0.03 0.03 64 1012.1
20260507063623 8 41 0.0 9.7 0.00 0.03 0.03 63 1012.1
20260507063117 8 52 3.2 9.7 0.00 0.03 0.03 66 1012.2
20260507062632 8 53 0.0 9.7 0.00 0.03 0.03 66 1012.2
20260507062119 8 53 1.6 9.7 0.00 0.03 0.03 65 1012.2
20260507061654 8 61 1.6 6.4 0.00 0.03 0.03 66 1012.2
20260507061123 8 60 0.0 3.2 0.00 0.03 0.03 66 1012.2
20260507060636 9 75 0.0 8.0 0.00 0.03 0.03 65 1012.2
20260507060121 8 73 4.8 8.0 0.00 0.03 0.03 68 1012.2
20260507055634 9 49 0.0 1.6 0.00 0.03 0.03 70 1012.2
20260507055120 9 49 0.0 1.6 0.00 0.03 0.03 69 1012.3
20260507054655 9 49 0.0 6.4 0.00 0.03 0.03 68 1012.3
20260507054122 9 48 1.6 8.0 0.00 0.03 0.03 70 1012.3
20260507053655 9 35 1.6 8.0 0.00 0.03 0.03 70 1012.4
20260507053121 9 49 0.0 9.7 0.00 0.03 0.03 71 1012.4
20260507052638 9 17 3.2 9.7 0.00 0.03 0.03 71 1012.3
20260507052124 9 25 0.0 4.8 0.00 0.03 0.03 72 1012.3
20260507051618 9 22 1.6 8.0 0.00 0.03 0.03 72 1012.4
20260507051134 9 20 0.0 9.7 0.00 0.03 0.03 72 1012.4
20260507050621 9 39 4.8 9.7 0.00 0.03 0.03 73 1012.4
20260507050117 9 14 3.2 8.0 0.00 0.03 0.03 73 1012.4
20260507045633 9 10 0.0 4.8 0.00 0.03 0.03 73 1012.4
20260507045120 9 5 0.0 3.2 0.00 0.03 0.03 73 1012.4
20260507044615 9 5 0.0 4.8 0.00 0.03 0.03 73 1012.5
20260507044126 9 5 0.0 8.0 0.00 0.03 0.03 72 1012.6
20260507043620 9 10 3.2 9.7 0.00 0.03 0.03 72 1012.4
20260507043133 9 343 4.8 9.7 0.00 0.03 0.03 73 1012.4
20260507042629 10 10 0.0 1.6 0.00 0.03 0.03 74 1012.4
20260507042121 10 10 0.0 4.8 0.00 0.03 0.03 73 1012.4
20260507041656 10 10 0.0 6.4 0.00 0.03 0.03 74 1012.3
20260507041144 10 10 1.6 8.0 0.00 0.03 0.03 74 1012.5
20260507040615 10 14 1.6 4.8 0.00 0.03 0.03 75 1012.4
20260507040148 10 10 0.0 3.2 0.00 0.03 0.03 75 1012.4
20260507035637 10 10 0.0 16.1 0.00 0.03 0.03 73 1012.7
20260507035124 10 10 6.4 16.1 0.00 0.03 0.03 73 1012.6
20260507034639 10 16 3.2 8.0 0.00 0.03 0.03 75 1012.6
20260507034133 10 14 1.6 4.8 0.00 0.03 0.03 77 1012.3
20260507033619 10 5 0.0 8.0 0.00 0.03 0.03 78 1012.2
20260507033133 10 360 0.0 12.9 0.00 0.03 0.03 77 1012.4
20260507032643 10 360 1.6 12.9 0.00 0.03 0.03 77 1012.2
20260507032136 10 324 6.4 14.5 0.00 0.03 0.03 77 1012.1
20260507031624 10 304 3.2 11.3 0.00 0.03 0.03 78 1012.0
20260507031119 10 327 1.6 9.7 0.00 0.03 0.03 78 1012.1
20260507030629 10 16 1.6 12.9 0.00 0.03 0.03 78 1012.1
20260507030145 10 326 6.4 12.9 0.00 0.03 0.03 79 1012.1
20260507025640 10 5 1.6 6.4 0.00 0.03 0.03 80 1012.1
20260507025132 10 25 0.0 6.4 0.00 0.03 0.03 81 1012.2
20260507024640 10 25 0.0 8.0 0.00 0.03 0.03 81 1012.2
20260507024135 10 25 1.6 8.0 0.00 0.03 0.03 81 1012.2
20260507023622 10 38 0.0 0.0 0.00 0.03 0.03 82 1012.0
20260507023117 10 38 0.0 0.0 0.00 0.03 0.03 81 1012.0
20260507022633 10 38 0.0 0.0 0.00 0.03 0.03 81 1012.0
20260507022120 10 38 0.0 0.0 0.00 0.03 0.03 81 1011.6
20260507021655 10 38 0.0 0.0 0.00 0.03 0.03 81 1011.3
20260507021121 10 38 0.0 0.0 0.00 0.03 0.03 81 1011.4
20260507020635 10 38 0.0 0.0 0.00 0.03 0.03 81 1011.4
20260507020122 11 38 0.0 0.0 0.00 0.03 0.03 81 1011.3
20260507015640 11 38 0.0 0.0 0.00 0.03 0.03 80 1011.4
20260507015133 11 38 0.0 0.0 0.00 0.03 0.03 80 1011.5
20260507014621 11 38 0.0 0.0 0.00 0.03 0.03 80 1011.4
20260507014137 11 39 0.0 8.0 0.00 0.03 0.03 80 1011.4
20260507013623 11 31 3.2 9.7 0.00 0.03 0.03 80 1011.2
20260507013153 11 33 4.8 9.7 0.00 0.03 0.03 80 1011.2
20260507012628 11 343 0.0 0.0 0.00 0.03 0.03 80 1011.3
20260507012121 11 327 0.0 6.4 0.00 0.03 0.03 79 1011.6
20260507011615 11 326 1.6 6.4 0.00 0.03 0.03 79 1011.9
20260507011130 11 345 1.6 6.4 0.00 0.03 0.03 79 1011.6
20260507010623 11 314 1.6 12.9 0.00 0.03 0.03 79 1011.7
20260507010136 11 301 8.0 12.9 0.00 0.03 0.03 80 1011.7
20260507005624 11 311 3.2 8.0 0.00 0.03 0.03 81 1011.7
20260507005119 11 310 3.2 6.4 0.00 0.03 0.03 81 1011.8
20260507004653 11 315 0.0 4.8 0.00 0.03 0.03 81 1011.8
20260507004122 11 316 0.0 3.2 0.00 0.03 0.03 82 1012.0
20260507003636 11 309 0.0 0.0 0.00 0.03 0.03 82 1012.1
20260507003124 11 309 0.0 0.0 0.00 0.03 0.03 82 1012.0
20260507002618 11 309 0.0 0.0 0.00 0.03 0.03 82 1011.9
20260507002131 11 309 0.0 4.8 0.00 0.03 0.03 81 1011.6
20260507001640 11 309 0.0 4.8 0.00 0.03 0.03 81 1011.3
20260507001135 11 295 1.6 11.3 0.00 0.03 0.03 82 1011.3
20260507000622 11 290 6.4 11.3 0.00 0.03 0.03 82 1011.7
20260507000135 11 284 0.0 16.1 0.00 0.03 0.03 82 1011.6
20260506235622 11 266 8.0 19.3 0.00 0.03 0.03 82 1011.7
20260506235135 11 298 12.9 19.3 0.00 0.03 0.03 83 1011.4
20260506234622 11 326 12.9 17.7 0.00 0.03 0.03 83 1011.2
20260506234137 11 320 6.4 16.1 0.00 0.03 0.03 83 1011.1
20260506233623 11 322 8.0 17.7 0.00 0.03 0.03 82 1011.0
20260506233117 11 316 11.3 17.7 0.00 0.03 0.03 82 1011.0
20260506232627 11 360 9.7 17.7 0.00 0.03 0.03 82 1010.9
20260506232139 11 316 6.4 16.1 0.00 0.03 0.03 83 1010.8
20260506231632 11 327 3.2 19.3 0.00 0.03 0.03 83 1010.5
20260506231128 11 303 12.9 19.3 0.00 0.03 0.03 82 1010.5
20260506230642 12 305 12.9 17.7 0.00 0.03 0.03 83 1010.5
20260506230156 12 309 11.3 17.7 0.00 0.03 0.03 83 1010.4
20260506225644 12 307 9.7 17.7 0.00 0.03 0.03 83 1010.3
20260506225136 12 305 11.3 17.7 0.00 0.03 0.03 83 1010.3
20260506224622 12 303 8.0 20.9 0.00 0.03 0.03 83 1010.3
20260506224137 12 318 8.0 20.9 0.00 0.03 0.03 83 1010.3
20260506223622 12 14 14.5 20.9 0.00 0.03 0.03 83 1010.3
20260506223118 12 320 1.6 8.0 0.00 0.03 0.03 83 1010.2
20260506222635 12 280 0.0 12.9 0.00 0.03 0.03 83 1010.2
20260506222123 12 280 9.7 12.9 0.00 0.03 0.03 83 1010.2
20260506221638 12 234 4.8 12.9 0.00 0.03 0.03 83 1010.1
20260506221125 12 262 6.4 12.9 0.00 0.03 0.03 83 1010.2
20260506220640 12 278 6.4 12.9 0.03 0.03 0.03 84 1010.3
20260506220132 12 247 8.0 14.5 0.03 0.03 0.03 83 1010.2
20260506215638 12 282 4.8 14.5 0.03 0.03 0.03 84 1010.1
20260506215123 12 277 8.0 12.9 0.03 0.03 0.03 83 1010.0
20260506214638 12 272 8.0 16.1 0.03 0.03 0.03 84 1010.0
20260506214132 12 306 9.7 16.1 0.03 0.03 0.03 84 1009.9
20260506213625 12 309 11.3 16.1 0.03 0.03 0.03 84 1009.8
20260506213117 12 234 3.2 16.1 0.03 0.03 0.03 84 1009.8
20260506212633 12 278 8.0 16.1 0.03 0.03 0.03 84 1009.6
20260506212140 12 305 4.8 17.7 0.03 0.03 0.03 84 1009.4
20260506211633 12 303 8.0 19.3 0.03 0.03 0.03 83 1009.4
20260506211122 12 311 11.3 25.7 0.00 0.00 0.00 83 1009.3
20260506210634 12 332 16.1 25.7 0.00 0.00 0.00 83 1009.4
20260506210121 12 301 12.9 25.7 0.00 0.00 0.00 82 1009.4
20260506205636 13 303 17.7 25.7 0.00 0.00 0.00 81 1009.4
20260506205121 13 305 16.1 25.7 0.00 0.00 0.00 81 1009.1
20260506204616 13 297 12.9 24.1 0.00 0.00 0.00 81 1009.0
20260506204132 13 279 6.4 19.3 0.00 0.00 0.00 81 1008.9
20260506203638 13 334 9.7 22.5 0.00 0.00 0.00 81 1008.8
20260506203124 13 263 14.5 22.5 0.00 0.00 0.00 80 1008.7
20260506202619 14 276 11.3 24.1 0.00 0.00 0.00 81 1008.7
20260506202132 14 257 12.9 24.1 0.00 0.00 0.00 80 1008.7
20260506201640 14 257 14.5 24.1 0.00 0.00 0.00 80 1008.8
20260506201134 15 245 16.1 24.1 0.00 0.00 0.00 81 1008.8
20260506200636 15 253 16.1 22.5 0.00 0.00 0.00 80 1008.7
20260506200151 15 250 12.9 22.5 0.00 0.00 0.00 81 1008.7
20260506195625 15 241 12.9 19.3 0.00 0.00 0.00 80 1008.7
20260506195118 15 232 12.9 19.3 0.00 0.00 0.00 82 1008.7
20260506194632 15 249 9.7 16.1 0.00 0.00 0.00 83 1008.7
20260506194139 15 282 4.8 14.5 0.00 0.00 0.00 83 1008.6
20260506193631 15 280 9.7 16.1 0.00 0.00 0.00 83 1008.5
20260506193120 15 241 11.3 22.5 0.00 0.00 0.00 83 1008.5
20260506192657 15 270 12.9 22.5 0.00 0.00 0.00 84 1008.4
20260506192143 15 242 8.0 16.1 0.00 0.00 0.00 85 1008.4
20260506191635 14 284 3.2 22.5 0.00 0.00 0.00 85 1008.3
20260506191123 14 227 11.3 22.5 0.00 0.00 0.00 84 1008.3
20260506190638 15 273 12.9 19.3 0.00 0.00 0.00 85 1008.3
20260506190124 15 247 4.8 11.3 0.00 0.00 0.00 85 1008.2
20260506185619 15 269 3.2 16.1 0.00 0.00 0.00 85 1008.1
20260506185132 15 220 8.0 16.1 0.00 0.00 0.00 84 1008.1
20260506184620 15 272 4.8 12.9 0.00 0.00 0.00 84 1007.9
20260506184137 15 273 8.0 12.9 0.00 0.00 0.00 83 1007.9
20260506183622 16 270 3.2 14.5 0.00 0.00 0.00 83 1007.9
20260506183153 16 266 4.8 16.1 0.00 0.00 0.00 83 1008.0
20260506182625 16 258 9.7 17.7 0.00 0.00 0.00 83 1007.9
20260506182118 16 244 11.3 19.3 0.00 0.00 0.00 82 1008.0
20260506181633 16 247 9.7 19.3 0.00 0.00 0.00 82 1007.9
20260506181128 16 305 12.9 17.7 0.00 0.00 0.00 82 1007.9
20260506180642 16 213 11.3 20.9 0.00 0.00 0.00 83 1007.8
20260506180135 16 253 12.9 22.5 0.00 0.00 0.00 83 1007.9
20260506175644 16 252 12.9 22.5 0.00 0.00 0.00 83 1007.9
20260506175138 16 273 14.5 20.9 0.00 0.00 0.00 83 1007.8
20260506174624 16 271 14.5 29.0 0.00 0.00 0.00 83 1007.7
20260506174120 16 276 16.1 29.0 0.00 0.00 0.00 84 1007.7
20260506173634 17 274 14.5 25.7 0.00 0.00 0.00 84 1007.6
20260506173121 17 273 14.5 25.7 0.00 0.00 0.00 85 1007.4
20260506172636 16 287 8.0 24.1 0.00 0.00 0.00 86 1007.4
20260506172121 16 237 14.5 24.1 0.00 0.00 0.00 86 1007.3
20260506171636 16 243 8.0 14.5 0.00 0.00 0.00 86 1007.1
20260506171125 16 203 1.6 8.0 0.00 0.00 0.00 86 1007.0
20260506170619 16 187 3.2 9.7 0.00 0.00 0.00 86 1007.0
20260506170134 16 186 4.8 11.3 0.00 0.00 0.00 86 1007.1
20260506165643 16 189 1.6 11.3 0.00 0.00 0.00 86 1007.0
20260506165135 16 183 4.8 16.1 0.00 0.00 0.00 86 1007.0